FENGYUN 3D (43010 NORAD) Tracking and Keplerian Element Data

This shows tracking and keplerian element data for the satellite.

Feedback or suggestion? Click here.




ElementValue
Catalog43010
NameFENGYUN 3D
Epoch Orbit34013
Epoch Day160.14206477
Epoch Year2024
RAAN114.7439
Inclination98.9104
Eccentricity0.0002037
Argument of Perigee37.7113
Mean Anonmoly322.4205
Mean Motion14.19353835
Decay Rate2.42E-06
L11 43010U 17072A 24160.14206477 .00000242 00000+0 13673-3 0 9999
L22 43010 98.9104 114.7439 0002037 37.7113 322.4205 14.19353835340135



Live tracking and technical data element details for FENGYUN 3D (NORAD 43010). FENGYUN 3D can be tracked NOW for your location showing map with azimuth and elevation plus other details from your city location.







IsCatalogInMostPopularTable: catalog: 43010, numindb: 695
Update: records affected: 1



GetName: 43010 FENGYUN 3D

Hit Count: updated at: Fri, 14 Jun 2024 18:01:31 GMT